Liberia, Costa Rica

10:12 PM CST on July 20, 2017 (GMT -0600)
Daniel Oduber Quiros International

Weather History for MRLB - October, 2012

Change the Weather History Date:

Wednesday, October 24, 2012

  Actual Average Record
Temperature  
Mean Temperature 75 °F -  
Max Temperature 77 °F 85 °F 91 °F (1997)
Min Temperature 73 °F 72 °F 71 °F (2002)
Cooling Degree Days 10    
Growing Degree Days 25 (Base 50)    
Moisture  
Dew Point 73 °F    
Average Humidity 93    
Maximum Humidity 97    
Minimum Humidity 87    
Precipitation  
Precipitation 0.39 in - - ()
Sea Level Pressure  
Sea Level Pressure 29.81 in    
Wind  
Wind Speed 3 mph ()    
Max Wind Speed 8 mph    
Max Gust Speed -    
Visibility 6.6 miles    
Events Rain    
Averages and records for this station are not official NWS values.
T = Trace of Precipitation, MM = Missing Value Source: Averaged Metar Reports

Daily Weather History Graph

Daily Weather History Graph

Search for Another Location

Airport or City:

Trip Planner

Search our weather history database for the weather conditions in past years. The results will help you decide how hot, cold, wet, or windy it might be!

Date:

Astronomy

Oct. 24, 2012 Rise Set
Actual Time 5:31 AM CST 5:20 PM CST
Civil Twilight 5:10 AM CST 5:41 PM CST
Nautical Twilight 4:45 AM CST 6:06 PM CST
Astronomical Twilight 4:20 AM CST 6:31 PM CST
Moon 1:51 PM CST (10/24) 1:17 AM CST (10/24)
Length of Visible Light 12h 31m
Length of Day
11h 48m
Waxing Gibbous, 76% of the Moon is Illuminated
Oct 24
Waxing Gibbous
Oct 29
Full
Nov 6
Last Quarter
Nov 13
New
Nov 20
First Quarter

Hourly Weather History & Observations

Time (CST) Temp. Dew Point Humidity Pressure Visibility Wind Dir Wind Speed Gust Speed Precip Events Conditions
6:00 AM 73 °F 72 °F 97% 29.78 in 12 mi North 5.8 mph - - Rain Light Rain
6:00 AM 73.4 °F 71.6 °F 94% 29.77 in 6.2 mi North 5.8 mph - N/A   Drizzle
7:00 AM 77.0 °F 73.4 °F 89% 29.82 in 6.2 mi Calm Calm - N/A   Drizzle
8:00 AM 75.2 °F 73.4 °F 94% 29.85 in 3.7 mi West 5.8 mph - N/A   Drizzle
9:00 AM 74 °F 72 °F 93% 29.87 in 5 mi WNW 8.1 mph - - Rain Light Rain
9:00 AM 73.4 °F 71.6 °F 94% 29.87 in 3.1 mi WNW 8.1 mph - N/A Rain Rain
9:20 AM 73.4 °F 71.6 °F 94% 29.87 in 5.0 mi NNW 3.5 mph - N/A Rain Rain
10:00 AM 73.4 °F 71.6 °F 94% 29.86 in 5.6 mi NE 3.5 mph - N/A Rain Light Rain
11:00 AM 75.2 °F 73.4 °F 94% 29.82 in 5.6 mi Calm Calm - N/A Rain Light Rain
12:00 PM 75 °F 73 °F 92% 29.83 in 6 mi Calm Calm - - Rain Light Rain
12:00 PM 75.2 °F 73.4 °F 94% 29.81 in 5.6 mi Calm Calm - N/A Rain Rain
1:00 PM 75.2 °F 73.4 °F 94% 29.78 in 6.2 mi Calm Calm - N/A Rain Light Rain
2:00 PM 75.2 °F 73.4 °F 94% 29.77 in 6.2 mi SSE 3.5 mph - N/A Rain Light Rain
3:00 PM 76 °F 73 °F 87% 29.76 in 12 mi SSE 4.6 mph - - Rain Light Drizzle
3:00 PM 75.2 °F 73.4 °F 94% 29.75 in 6.2 mi SSE 4.6 mph - N/A   Light Drizzle
4:00 PM 77.0 °F 73.4 °F 89% 29.75 in 6.2 mi SE 3.5 mph - N/A   Mostly Cloudy
5:00 PM 77.0 °F 73.4 °F 89% 29.77 in 6.2 mi ESE 3.5 mph - N/A   Mostly Cloudy
6:00 PM 76 °F 74 °F 91% 29.81 in 12 mi Calm Calm - -   Overcast
6:00 PM 75.2 °F 73.4 °F 94% 29.80 in 6.2 mi Calm Calm - N/A   Mostly Cloudy
7:00 PM 75.2 °F 73.4 °F 94% 29.81 in 6.2 mi East 3.5 mph - N/A   Mostly Cloudy
8:00 PM 75.2 °F 73.4 °F 94% 29.83 in 6.2 mi ESE 3.5 mph - N/A   Mostly Cloudy